| time (UTC) | temp F | wind direction | speed MPH | gust MPH | rain 1hr in | rain 24hr in | rain mn in | humidity % | barometer mb |
| 20260831093014 | 77 | 181 | 6.0 | 13.0 | 0.00 | 0.00 | 0.00 | 96 | 1010.6 |
| 20260831091504 | 77 | 176 | 7.0 | 12.0 | 0.00 | 0.00 | 0.00 | 96 | 1010.6 |
| 20260831090004 | 77 | 181 | 9.0 | 13.0 | 0.00 | 0.00 | 0.00 | 96 | 1010.6 |
| 20260831084500 | 77 | 217 | 8.0 | 13.0 | 0.00 | 0.00 | 0.00 | 96 | 1010.7 |
| 20260831083059 | 77 | 208 | 8.0 | 13.0 | 0.00 | 0.00 | 0.00 | 96 | 1010.7 |
| 20260831081601 | 77 | 166 | 8.0 | 15.0 | 0.00 | 0.00 | 0.00 | 96 | 1010.8 |
| 20260831080110 | 77 | 205 | 9.0 | 15.0 | 0.00 | 0.00 | 0.00 | 96 | 1010.9 |
| 20260831074602 | 77 | 176 | 6.0 | 15.0 | 0.00 | 0.00 | 0.00 | 96 | 1011.1 |
| 20260831073052 | 77 | 210 | 8.0 | 13.0 | 0.00 | 0.00 | 0.00 | 96 | 1011.3 |
| 20260831071601 | 77 | 200 | 5.0 | 12.0 | 0.00 | 0.00 | 0.00 | 96 | 1011.5 |
| 20260831070048 | 77 | 198 | 6.0 | 13.0 | 0.00 | 0.00 | 0.00 | 95 | 1011.7 |
| 20260831064544 | 77 | 196 | 6.0 | 12.0 | 0.00 | 0.00 | 0.00 | 95 | 1011.8 |
| 20260831063042 | 77 | 165 | 6.0 | 11.0 | 0.00 | 0.00 | 0.00 | 96 | 1012.1 |
| 20260831061544 | 77 | 151 | 5.0 | 10.0 | 0.00 | 0.00 | 0.00 | 95 | 1012.2 |
| 20260831060049 | 77 | 216 | 6.0 | 11.0 | 0.00 | 0.00 | 0.00 | 95 | 1012.4 |
| 20260831054535 | 77 | 187 | 3.0 | 11.0 | 0.00 | 0.00 | 0.00 | 96 | 1012.3 |
| 20260831053135 | 77 | 175 | 6.0 | 12.0 | 0.00 | 0.00 | 0.00 | 96 | 1012.3 |
| 20260831051536 | 77 | 162 | 4.0 | 11.0 | 0.00 | 0.00 | 0.00 | 96 | 1012.3 |
| 20260831050033 | 77 | 208 | 7.0 | 12.0 | 0.00 | 0.00 | 0.00 | 96 | 1012.4 |
| 20260831044533 | 77 | 186 | 7.0 | 11.0 | 0.00 | 0.00 | 0.00 | 96 | 1012.4 |
| 20260831043038 | 77 | 191 | 5.0 | 11.0 | 0.00 | 0.00 | 0.00 | 96 | 1012.3 |
| 20260831041539 | 77 | 217 | 5.0 | 11.0 | 0.00 | 0.00 | 0.00 | 96 | 1012.4 |
| 20260831040032 | 77 | 203 | 7.0 | 12.0 | 0.00 | 0.00 | 0.00 | 96 | 1012.3 |
| 20260831034529 | 77 | 155 | 4.0 | 12.0 | 0.00 | 0.00 | 0.00 | 96 | 1012.2 |
| 20260831033029 | 77 | 214 | 6.0 | 11.0 | 0.00 | 0.00 | 0.00 | 96 | 1012.0 |
| 20260831031533 | 77 | 200 | 7.0 | 11.0 | 0.00 | 0.00 | 0.00 | 96 | 1011.9 |
| 20260831030027 | 78 | 203 | 6.0 | 10.0 | 0.00 | 0.00 | 0.00 | 96 | 1011.8 |
| 20260831024527 | 77 | 158 | 5.0 | 11.0 | 0.00 | 0.00 | 0.00 | 95 | 1011.7 |
| 20260831023026 | 77 | 205 | 6.0 | 11.0 | 0.00 | 0.00 | 0.00 | 95 | 1011.4 |
| 20260831021530 | 77 | 208 | 7.0 | 10.0 | 0.00 | 0.00 | 0.00 | 95 | 1011.2 |
| 20260831020026 | 77 | 226 | 5.0 | 9.0 | 0.00 | 0.00 | 0.00 | 95 | 1010.9 |
| 20260831014524 | 78 | 200 | 3.0 | 9.0 | 0.00 | 0.00 | 0.00 | 95 | 1010.9 |
| 20260831013037 | 78 | 205 | 2.0 | 9.0 | 0.00 | 0.00 | 0.00 | 95 | 1010.8 |
| 20260831011523 | 78 | 203 | 2.0 | 7.0 | 0.00 | 0.00 | 0.00 | 95 | 1010.6 |
| 20260831010023 | 78 | 153 | 3.0 | 8.0 | 0.00 | 0.00 | 0.00 | 94 | 1010.4 |
| 20260831004524 | 78 | 187 | 4.0 | 8.0 | 0.00 | 0.00 | 0.00 | 94 | 1010.3 |
| 20260831003024 | 78 | 207 | 2.0 | 7.0 | 0.00 | 0.00 | 0.00 | 94 | 1010.1 |
| 20260831001525 | 78 | 174 | 5.0 | 9.0 | 0.00 | 0.00 | 0.00 | 93 | 1010.1 |
| 20260831000020 | 78 | 153 | 2.0 | 7.0 | 0.00 | 0.00 | 0.00 | 94 | 1009.9 |
| 20260830234518 | 78 | 141 | 4.0 | 10.0 | 0.00 | 0.00 | 0.00 | 93 | 1009.6 |
| 20260830233018 | 79 | 213 | 4.0 | 9.0 | 0.00 | 0.00 | 0.00 | 92 | 1009.3 |
| 20260830231518 | 79 | 191 | 5.0 | 10.0 | 0.00 | 0.00 | 0.00 | 92 | 1009.1 |
| 20260830230019 | 79 | 190 | 4.0 | 9.0 | 0.00 | 0.00 | 0.00 | 93 | 1009.0 |
| 20260830224518 | 79 | 136 | 5.0 | 9.0 | 0.00 | 0.00 | 0.00 | 92 | 1009.2 |
| 20260830223014 | 80 | 166 | 5.0 | 9.0 | 0.00 | 0.00 | 0.00 | 92 | 1009.2 |
| 20260830221517 | 80 | 161 | 6.0 | 10.0 | 0.00 | 0.00 | 0.00 | 92 | 1009.2 |
| 20260830220011 | 80 | 162 | 6.0 | 11.0 | 0.00 | 0.00 | 0.00 | 91 | 1009.4 |
| 20260830214516 | 81 | 201 | 4.0 | 13.0 | 0.00 | 0.00 | 0.00 | 91 | 1009.4 |
| 20260830213007 | 80 | 192 | 7.0 | 14.0 | 0.00 | 0.00 | 0.00 | 91 | 1009.6 |
| 20260830211506 | 81 | 155 | 6.0 | 13.0 | 0.00 | 0.00 | 0.00 | 91 | 1009.8 |
| 20260830210004 | 80 | 160 | 8.0 | 14.0 | 0.00 | 0.00 | 0.00 | 91 | 1009.9 |
| 20260830204503 | 80 | 179 | 10.0 | 15.0 | 0.00 | 0.00 | 0.00 | 91 | 1010.0 |
| 20260830203008 | 80 | 140 | 7.0 | 12.0 | 0.00 | 0.00 | 0.00 | 91 | 1010.1 |
| 20260830201502 | 80 | 149 | 9.0 | 14.0 | 0.00 | 0.00 | 0.00 | 91 | 1010.2 |
| 20260830200115 | 80 | 123 | 8.0 | 14.0 | 0.00 | 0.00 | 0.00 | 91 | 1010.4 |
| 20260830194640 | 80 | 173 | 11.0 | 16.0 | 0.00 | 0.00 | 0.00 | 91 | 1010.5 |
| 20260830193105 | 80 | 165 | 8.0 | 16.0 | 0.00 | 0.00 | 0.00 | 91 | 1010.7 |
| 20260830191602 | 81 | 167 | 9.0 | 16.0 | 0.00 | 0.00 | 0.00 | 91 | 1010.9 |
| 20260830190057 | 81 | 129 | 7.0 | 18.0 | 0.00 | 0.00 | 0.00 | 90 | 1011.2 |
| 20260830184555 | 81 | 169 | 10.0 | 15.0 | 0.00 | 0.00 | 0.00 | 91 | 1011.4 |
| 20260830183105 | 80 | 148 | 11.0 | 17.0 | 0.00 | 0.00 | 0.00 | 91 | 1011.8 |
| 20260830181554 | 81 | 169 | 9.0 | 17.0 | 0.00 | 0.00 | 0.00 | 91 | 1012.0 |
| 20260830180053 | 80 | 153 | 9.0 | 16.0 | 0.00 | 0.00 | 0.00 | 91 | 1012.2 |
| 20260830174556 | 80 | 167 | 10.0 | 16.0 | 0.00 | 0.00 | 0.00 | 91 | 1012.5 |
| 20260830173107 | 80 | 144 | 8.0 | 16.0 | 0.00 | 0.00 | 0.00 | 91 | 1012.8 |
| 20260830171551 | 81 | 155 | 9.0 | 16.0 | 0.00 | 0.00 | 0.00 | 91 | 1013.0 |
| 20260830170055 | 80 | 150 | 9.0 | 15.0 | 0.00 | 0.00 | 0.00 | 91 | 1013.0 |
| 20260830164556 | 80 | 167 | 8.0 | 14.0 | 0.00 | 0.00 | 0.00 | 92 | 1013.1 |
| 20260830163056 | 80 | 138 | 7.0 | 12.0 | 0.00 | 0.00 | 0.00 | 93 | 1013.1 |
| 20260830161601 | 79 | 191 | 9.0 | 13.0 | 0.00 | 0.00 | 0.00 | 93 | 1013.2 |
| 20260830160041 | 79 | 184 | 7.0 | 14.0 | 0.00 | 0.00 | 0.00 | 94 | 1013.1 |
| 20260830154539 | 78 | 162 | 8.0 | 13.0 | 0.00 | 0.00 | 0.00 | 94 | 1013.2 |
| 20260830153046 | 78 | 198 | 6.0 | 12.0 | 0.00 | 0.00 | 0.00 | 95 | 1013.1 |
| 20260830151541 | 78 | 166 | 5.0 | 10.0 | 0.00 | 0.00 | 0.00 | 95 | 1013.0 |
| 20260830150049 | 78 | 180 | 5.0 | 10.0 | 0.00 | 0.00 | 0.00 | 95 | 1013.0 |
| 20260830144538 | 78 | 183 | 4.0 | 9.0 | 0.00 | 0.00 | 0.00 | 94 | 1013.0 |
| 20260830143032 | 78 | 195 | 4.0 | 11.0 | 0.00 | 0.00 | 0.00 | 94 | 1012.8 |
| 20260830141530 | 78 | 189 | 6.0 | 12.0 | 0.00 | 0.00 | 0.00 | 94 | 1012.6 |
| 20260830140027 | 78 | 169 | 5.0 | 9.0 | 0.00 | 0.00 | 0.00 | 95 | 1012.5 |
| 20260830134529 | 77 | 155 | 7.0 | 13.0 | 0.00 | 0.00 | 0.00 | 95 | 1012.2 |
| 20260830133028 | 78 | 141 | 5.0 | 10.0 | 0.00 | 0.00 | 0.00 | 96 | 1012.1 |
| 20260830131522 | 78 | 181 | 6.0 | 11.0 | 0.00 | 0.00 | 0.00 | 95 | 1011.7 |
| 20260830130020 | 78 | 216 | 6.0 | 11.0 | 0.00 | 0.00 | 0.00 | 95 | 1011.5 |
| 20260830124519 | 77 | 146 | 5.0 | 12.0 | 0.00 | 0.00 | 0.00 | 95 | 1011.4 |
| 20260830123020 | 77 | 194 | 8.0 | 16.0 | 0.00 | 0.00 | 0.00 | 95 | 1011.0 |
| 20260830121520 | 77 | 163 | 6.0 | 15.0 | 0.00 | 0.00 | 0.00 | 96 | 1010.8 |
| 20260830120018 | 77 | 184 | 6.0 | 14.0 | 0.00 | 0.00 | 0.00 | 95 | 1010.6 |
| 20260830114520 | 77 | 176 | 8.0 | 12.0 | 0.00 | 0.00 | 0.00 | 96 | 1010.5 |
| 20260830113016 | 77 | 197 | 6.0 | 13.0 | 0.00 | 0.00 | 0.00 | 96 | 1010.4 |
| 20260830111522 | 77 | 175 | 7.0 | 12.0 | 0.00 | 0.00 | 0.00 | 96 | 1010.3 |
| 20260830110014 | 77 | 169 | 5.0 | 14.0 | 0.00 | 0.00 | 0.00 | 96 | 1010.3 |
| 20260830104513 | 77 | 170 | 8.0 | 15.0 | 0.00 | 0.00 | 0.00 | 96 | 1010.3 |
| 20260830103016 | 77 | 204 | 6.0 | 12.0 | 0.00 | 0.00 | 0.00 | 96 | 1010.3 |
| 20260830101512 | 77 | 209 | 6.0 | 12.0 | 0.00 | 0.00 | 0.00 | 96 | 1010.1 |
| 20260830100015 | 77 | 160 | 6.0 | 12.0 | 0.00 | 0.00 | 0.00 | 96 | 1010.1 |